Wind_Speed
7 7 7 8 9 9 9 9 9 10 10 11 11 12 12 13 13 14 14 15 16 17 17 18 19 19 19 20 20 20 21 22 22 22 23 24 25 25
8 8 8 9 9 9 10 10 10 11 12 12 12 13 14 14 15 15 16 16 17 18 19 19 20 20 21 22 22 23 23 24 24 25 25 25 26 26
8 9 9 9 10 10 11 11 12 12 13 14 14 14 15 16 16 17 17 18 19 20 20 21 22 22 23 24 24 24 25 26 26 26 27 27 28 28
9 10 10 11 11 11 12 12 13 14 14 15 15 16 16 16 17 18 18 19 20 21 22 22 23 23 24 25 25 25 26 26 26 27 28 29 30 30
11 12 12 12 13 13 13 14 14 15 15 16 16 16 17 17 18 19 19 20 21 21 22 23 23 24 24 25 26 27 27 27 28 29 30 29 31 31
13 13 13 13 14 14 14 15 15 15 16 16 16 17 17 18 19 19 20 21 22 22 23 23 24 25 26 27 27 28 28 29 29 30 31 32 32 33
14 13 13 14 14 15 15 15 15 16 16 17 17 18 19 19 20 21 21 22 22 23 24 25 26 27 27 28 28 29 30 30 31 31 32 33 34 34
15 15 15 15 15 15 16 16 16 17 18 18 19 19 21 21 21 22 22 23 24 25 26 27 28 28 28 29 30 30 31 31 32 33 33 34 34 35
15 16 16 16 16 16 17 17 18 19 20 20 20 21 22 22 23 23 24 24 25 27 27 28 29 29 30 30 31 32 33 33 34 34 35 35 36 36
17 17 17 17 17 17 18 19 20 20 20 21 21 22 23 23 24 25 25 26 27 28 29 30 30 31 31 32 32 32 33 34 34 35 35 36 36 37
17 17 18 18 18 19 20 20 20 20 20 21 22 22 24 24 25 26 27 27 28 29 30 31 31 31 32 32 32 33 34 34 34 35 36 37 37 38
18 19 19 19 19 20 20 21 21 21 21 22 22 23 24 25 26 27 28 28 29 30 31 31 32 32 32 32 33 33 34 34 34 35 35 36 37 38
19 19 19 20 20 21 21 22 22 23 23 24 24 24 25 26 27 28 29 29 30 31 32 32 32 32 32 32 33 33 34 35 35 36 36 37 38 38
20 20 20 21 21 22 23 24 24 24 24 25 26 25 25 26 27 28 29 30 31 32 32 32 32 32 33 33 33 34 35 36 36 37 38 39 39 38
21 22 22 23 23 23 24 25 25 25 26 26 26 27 27 28 28 29 31 31 32 32 32 33 33 33 34 34 35 35 36 37 38 39 39 39 38 38
24 24 24 24 24 25 25 25 26 26 26 27 27 28 29 29 29 30 30 31 31 32 32 33 34 34 35 35 36 37 37 38 39 39 38 37 37 37
25 26 25 25 25 25 25 26 26 26 27 27 28 28 29 30 29 30 30 31 31 32 33 34 34 35 35 36 36 37 38 38 39 38 37 37 37 38
26 26 26 26 26 26 26 26 26 27 28 28 29 30 30 30 29 29 30 31 32 33 33 34 34 35 35 36 37 37 37 37 38 37 37 38 38 38
26 25 26 26 26 26 27 27 28 28 29 30 30 30 30 30 30 31 32 33 33 33 33 34 34 35 36 37 36 37 37 37 37 37 38 38 38 38
27 27 26 27 28 28 28 28 29 30 30 30 30 31 31 31 32 32 33 34 34 34 34 34 35 36 36 37 36 37 38 38 37 37 37 38 38 39
28 28 28 29 30 30 30 30 30 31 31 32 32 32 32 33 33 33 34 34 34 34 34 35 36 37 37 37 36 37 38 38 38 38 38 38 39 39
30 30 30 30 31 32 32 33 33 33 32 32 33 33 34 34 34 34 34 34 34 35 35 35 36 37 37 36 36 37 38 38 38 38 39 39 39 39
32 32 32 32 33 33 34 34 34 34 34 34 34 34 35 35 35 35 35 35 35 36 36 36 36 36 37 37 37 38 39 38 38 39 39 40 40 40
Wind_Direction
307 308 308 308 308 309 309 309 309 310 311 309 308 308 307 306 306 308 307 306 306 306 307 306 305 305 302 302 299 297 296 295 293 291 291 290 289 288
302 302 304 306 306 307 307 307 306 305 303 303 304 305 306 306 304 302 302 303 303 304 304 305 306 306 304 301 300 297 297 298 296 294 292 291 289 288
303 304 306 307 306 306 305 305 306 306 305 305 304 304 305 305 305 304 303 303 304 304 304 304 304 305 305 303 299 298 297 297 296 295 294 292 292 291
301 302 304 304 304 306 306 306 305 305 304 305 305 304 304 304 306 306 305 303 303 303 303 303 303 303 304 304 303 301 299 298 296 295 294 292 293 291
297 298 301 302 303 303 305 306 306 305 303 304 305 305 305 305 306 306 306 305 305 305 305 305 305 305 305 305 305 304 302 300 300 298 297 292 295 293
294 295 297 298 300 301 304 305 305 306 306 304 304 305 305 306 306 306 305 306 307 307 308 307 306 307 306 306 305 304 303 302 301 300 299 297 296 295
294 294 295 298 299 299 302 304 304 305 306 306 306 305 305 304 306 306 305 306 306 307 308 308 308 307 305 305 305 304 304 303 302 301 300 299 298 297
293 293 295 297 300 300 299 300 303 304 305 305 304 304 304 304 305 306 306 306 306 306 307 308 308 307 305 304 304 304 303 303 302 301 301 300 299 298
291 292 292 294 297 300 301 301 302 303 303 303 303 304 305 304 305 305 306 306 307 308 308 308 308 307 307 306 306 305 303 303 302 302 301 300 300 299
289 289 289 291 295 298 300 301 301 301 302 303 304 305 305 306 307 306 305 306 307 308 308 308 307 308 308 308 308 307 306 305 304 303 302 301 300 300
290 290 289 291 292 294 297 300 301 302 304 304 305 306 307 307 307 308 307 307 308 308 309 308 308 308 308 308 308 308 308 308 307 305 303 302 301 300
290 290 290 291 292 294 297 299 301 302 305 307 307 308 308 308 307 308 308 308 309 310 310 309 309 308 308 308 308 308 308 309 309 308 306 305 304 303
289 289 290 292 292 294 297 299 299 301 303 305 306 306 307 308 307 308 308 308 309 310 310 310 310 309 309 309 308 308 309 309 309 309 309 308 306 305
289 290 290 291 294 295 296 297 299 300 301 302 304 305 307 308 308 308 309 309 310 311 311 310 310 310 309 309 309 309 309 309 310 310 309 309 308 307
287 288 290 292 293 294 296 297 298 300 300 301 303 304 305 307 307 308 308 309 310 311 311 311 311 310 309 309 309 309 309 309 309 309 309 310 309 308
286 287 288 289 291 292 293 295 297 299 301 302 303 304 305 306 307 307 308 309 310 311 311 311 312 311 310 310 310 310 310 310 311 311 311 311 309 309
284 286 286 288 290 291 293 294 295 296 299 300 302 303 305 306 307 307 308 309 309 310 311 311 311 311 311 312 312 312 312 312 312 312 312 311 309 310
284 287 287 287 289 291 291 293 295 297 298 300 301 303 305 306 307 308 310 310 310 309 309 310 310 311 312 313 314 314 314 313 312 312 312 311 310 311
284 286 286 287 288 289 290 292 294 296 298 301 303 304 304 305 306 307 308 309 310 310 310 311 311 311 312 312 313 314 314 314 313 313 312 312 312 312
283 284 285 285 286 288 290 292 294 296 298 299 301 303 304 304 305 306 307 308 309 310 310 311 312 312 312 313 313 314 314 314 314 314 313 313 312 313
282 283 284 285 286 287 289 290 292 295 297 299 300 301 301 302 304 305 306 307 308 309 311 312 312 312 313 313 313 314 314 314 313 313 313 313 313 313
282 282 283 284 285 286 287 289 291 293 295 298 299 300 301 302 303 304 305 306 307 308 309 310 311 311 312 312 312 313 314 314 314 314 314 314 314 314
282 283 283 283 285 286 288 289 291 292 294 296 298 300 300 301 302 303 304 305 306 307 308 309 309 310 311 312 312 313 313 313 313 314 314 314 314 313
Height
5847 5847 5846 5846 5846 5845 5844 5844 5844 5843 5842 5841 5840 5839 5838 5837 5836 5835 5834 5833 5831 5830 5829 5827 5825 5823 5822 5820 5818 5816 5815 5813 5811 5810 5808 5807 5805 5804
5846 5845 5845 5844 5844 5843 5842 5842 5841 5841 5840 5838 5837 5836 5835 5834 5833 5832 5831 5829 5828 5826 5824 5823 5821 5819 5817 5815 5813 5811 5809 5807 5805 5804 5802 5800 5798 5797
5844 5843 5843 5842 5842 5841 5840 5839 5838 5837 5836 5835 5834 5833 5832 5830 5829 5828 5826 5825 5823 5822 5820 5818 5816 5814 5812 5810 5807 5805 5803 5801 5799 5797 5795 5793 5791 5789
5842 5841 5841 5840 5839 5838 5837 5836 5835 5834 5833 5832 5830 5829 5828 5826 5825 5823 5822 5820 5819 5817 5815 5813 5811 5809 5806 5804 5801 5799 5797 5794 5792 5790 5788 5785 5783 5781
5840 5839 5838 5837 5836 5835 5834 5833 5832 5831 5829 5828 5827 5825 5824 5822 5821 5819 5817 5816 5814 5812 5810 5807 5805 5803 5800 5798 5795 5793 5790 5787 5785 5783 5780 5777 5775 5772
5837 5836 5835 5834 5833 5832 5830 5829 5828 5827 5825 5824 5823 5821 5820 5818 5816 5814 5813 5811 5808 5806 5804 5802 5799 5796 5794 5791 5788 5785 5783 5780 5777 5774 5772 5769 5766 5763
5833 5832 5831 5830 5829 5828 5827 5825 5824 5823 5822 5820 5818 5817 5815 5813 5811 5809 5808 5805 5803 5801 5798 5796 5793 5790 5787 5784 5781 5778 5775 5772 5769 5766 5762 5759 5756 5753
5829 5828 5828 5826 5825 5824 5823 5821 5820 5819 5817 5816 5814 5812 5810 5808 5806 5804 5802 5800 5797 5795 5792 5789 5786 5782 5779 5776 5773 5769 5766 5763 5760 5757 5753 5750 5746 5743
5825 5824 5823 5822 5821 5820 5819 5817 5816 5814 5812 5811 5809 5807 5805 5803 5801 5798 5796 5793 5790 5788 5785 5781 5778 5775 5771 5767 5764 5760 5757 5753 5750 5746 5743 5739 5736 5732
5821 5820 5819 5818 5817 5816 5814 5812 5811 5809 5807 5805 5803 5801 5798 5796 5794 5792 5789 5786 5783 5780 5777 5773 5770 5766 5762 5758 5755 5751 5747 5744 5740 5736 5732 5729 5725 5721
5816 5815 5814 5813 5812 5810 5809 5807 5806 5804 5802 5799 5797 5795 5792 5790 5787 5785 5782 5779 5776 5773 5769 5765 5761 5757 5754 5750 5746 5742 5738 5734 5730 5726 5722 5718 5714 5710
5811 5810 5809 5808 5806 5805 5803 5802 5800 5798 5796 5794 5791 5789 5786 5783 5781 5778 5775 5772 5768 5765 5761 5757 5753 5749 5746 5742 5737 5733 5729 5725 5721 5716 5712 5708 5703 5699
5806 5805 5803 5802 5801 5799 5798 5796 5794 5792 5790 5788 5785 5783 5780 5777 5774 5771 5768 5764 5761 5757 5753 5749 5745 5741 5737 5734 5729 5725 5721 5716 5712 5707 5702 5697 5693 5688
5800 5799 5798 5796 5795 5793 5792 5790 5788 5786 5784 5781 5779 5776 5773 5770 5767 5764 5760 5756 5753 5749 5745 5741 5737 5733 5729 5725 5721 5717 5712 5707 5703 5698 5693 5688 5682 5678
5794 5793 5791 5790 5789 5787 5785 5783 5781 5779 5777 5775 5772 5769 5766 5763 5760 5756 5753 5749 5745 5741 5736 5732 5728 5724 5720 5716 5712 5707 5703 5698 5693 5688 5683 5677 5672 5667
5787 5786 5785 5783 5782 5780 5778 5777 5775 5772 5770 5767 5765 5762 5759 5756 5752 5749 5745 5741 5737 5733 5728 5724 5719 5715 5711 5707 5702 5697 5693 5688 5683 5677 5672 5667 5662 5656
5780 5779 5778 5777 5775 5773 5771 5769 5767 5765 5763 5760 5757 5754 5751 5748 5744 5740 5737 5733 5729 5725 5720 5715 5711 5706 5702 5697 5693 5688 5683 5678 5672 5667 5662 5657 5652 5647
5773 5772 5770 5769 5767 5766 5764 5762 5760 5757 5755 5752 5749 5746 5743 5739 5736 5732 5728 5724 5720 5716 5712 5707 5702 5698 5693 5689 5683 5678 5673 5668 5663 5657 5652 5647 5642 5637
5765 5764 5763 5761 5760 5758 5756 5754 5752 5749 5747 5744 5741 5737 5734 5731 5727 5724 5720 5716 5711 5707 5702 5698 5693 5689 5685 5680 5675 5669 5664 5658 5653 5648 5643 5637 5632 5627
5756 5755 5754 5753 5751 5749 5747 5745 5743 5741 5738 5735 5732 5729 5726 5722 5719 5715 5711 5707 5702 5698 5694 5689 5684 5679 5675 5670 5665 5660 5654 5649 5644 5639 5633 5628 5622 5617
5747 5746 5745 5744 5742 5741 5739 5737 5734 5732 5729 5726 5723 5720 5716 5713 5709 5705 5701 5697 5693 5689 5685 5680 5675 5670 5665 5660 5656 5651 5645 5639 5634 5629 5623 5618 5613 5607
5738 5737 5736 5734 5733 5731 5729 5727 5725 5723 5720 5717 5714 5711 5707 5703 5700 5696 5692 5688 5684 5680 5675 5671 5666 5661 5656 5651 5646 5641 5636 5630 5624 5619 5613 5608 5602 5597
5728 5727 5726 5724 5723 5721 5719 5717 5715 5713 5710 5707 5704 5701 5697 5694 5690 5686 5682 5678 5674 5670 5666 5661 5656 5652 5647 5642 5637 5632 5626 5621 5616 5610 5604 5598 5593 5587